Location: Freiburg+im+Breisgau
(48.0359°N, 7.8195°E)
Time: 05:49:46
(UTC+01:00)

ISS - Pass Details

Date: 13 January 2018
Orbit: 401 x 406 km, 51.6° (Epoch: 17 January)

Event Time Altitude Azimuth Distance (km) Brightness Sun altitude
Exits shadow 05:34:43 25° 109° (ESE) 856 -1.6 -26.1°
Drops below altitude 10° 05:36:15 10° 111° (ESE) 1,462 -0.1 -25.9°
Sets 05:38:19 0° 112° (ESE) 2,320 1.2 -25.5°
